Robstown, TX

6:27 PM CST on December 10, 2016 (GMT -0600)
Robstown

Weather History for KRBO - November, 2012

Change the Weather History Date:

Thursday, November 1, 2012

  Actual Average (KCRP) Record (KCRP)
Temperature  
Mean Temperature 76 °F -  
Max Temperature 88 °F 78 °F 91 °F (2016)
Min Temperature 66 °F 59 °F 39 °F (1949)
Cooling Degree Days 12    
Growing Degree Days 26 (Base 50)    
Moisture  
Dew Point 67 °F    
Average Humidity 75    
Maximum Humidity 96    
Minimum Humidity 33    
Precipitation  
Precipitation 0.00 in - - ()
Sea Level Pressure  
Sea Level Pressure 30.01 in    
Wind  
Wind Speed 7 mph (SE)    
Max Wind Speed 24 mph    
Max Gust Speed 37 mph    
Visibility 8 miles    
Events Fog , Rain    
Averages and records for this station are not official NWS values.
T = Trace of Precipitation, MM = Missing Value Source: NWS Daily Summary

Daily Weather History Graph

Daily Weather History Graph

Search for Another Location

Airport or City:

Trip Planner

Search our weather history database for the weather conditions in past years. The results will help you decide how hot, cold, wet, or windy it might be!

Date:

Astronomy

Nov. 01, 2012 Rise Set
Actual Time 7:42 AM CDT 6:46 PM CDT
Civil Twilight 7:17 AM CDT 7:10 PM CDT
Nautical Twilight 6:50 AM CDT 7:38 PM CDT
Astronomical Twilight 6:22 AM CDT 8:05 PM CDT
Moon 8:55 PM CDT (11/1) 10:05 AM CDT (11/1)
Length of Visible Light 11h 52m
Length of Day
11h 04m
Waning Gibbous, 93% of the Moon is Illuminated
Nov 1
Waning Gibbous
Nov 6
Last Quarter
Nov 13
New
Nov 20
First Quarter
Nov 28
Full

Hourly Weather History & Observations

Time (CDT) Temp. Heat Index Dew Point Humidity Pressure Visibility Wind Dir Wind Speed Gust Speed Precip Events Conditions
12:15 AM 73.4 °F - 69.1 °F 86% 30.02 in 10.0 mi SE 5.8 mph - N/A   Clear
12:35 AM 73.4 °F - 69.4 °F 87% 30.02 in 10.0 mi SE 6.9 mph - N/A   Clear
12:55 AM 73.0 °F - 69.4 °F 88% 30.02 in 10.0 mi SE 5.8 mph - N/A   Clear
1:15 AM 72.7 °F - 69.3 °F 89% 30.02 in 10.0 mi SE 5.8 mph - N/A   Clear
1:35 AM 72.5 °F - 68.9 °F 88% 30.02 in 10.0 mi SSE 4.6 mph - N/A   Clear
1:55 AM 72.7 °F - 69.4 °F 90% 30.02 in 10.0 mi SSE 4.6 mph - N/A   Clear
2:15 AM 72.3 °F - 69.1 °F 89% 30.02 in 10.0 mi SSE 4.6 mph - N/A   Clear
2:35 AM 72.0 °F - 69.1 °F 91% 30.02 in 10.0 mi SSE 4.6 mph - N/A   Clear
2:55 AM 71.6 °F - 68.9 °F 91% 30.02 in 10.0 mi SSE 3.5 mph - N/A   Clear
3:15 AM 69.6 °F - 66.9 °F 91% 30.02 in 10.0 mi SE 3.5 mph - N/A   Clear
3:35 AM 69.1 °F - 66.9 °F 93% 30.02 in 10.0 mi Calm Calm - N/A   Clear
3:55 AM 68.7 °F - 66.6 °F 93% 30.01 in 7.0 mi Calm Calm - N/A   Clear
4:15 AM 70.0 °F - 68.2 °F 94% 30.01 in 4.0 mi Calm Calm - N/A   Clear
4:35 AM 69.3 °F - 67.6 °F 95% 30.00 in 0.5 mi Calm Calm - N/A Fog Fog
4:55 AM 68.9 °F - 67.3 °F 95% 30.00 in 0.2 mi Calm Calm - N/A Fog Fog
5:15 AM 68.9 °F - 67.3 °F 95% 30.00 in 0.2 mi Calm Calm - N/A Fog Fog
5:35 AM 67.6 °F - 66.4 °F 96% 30.00 in 0.2 mi Calm Calm - N/A Fog Fog
5:55 AM 68.2 °F - 66.9 °F 96% 30.00 in 0.2 mi Calm Calm - N/A Fog Fog
6:35 AM 68.0 °F - 66.7 °F 96% 30.01 in 0.2 mi East 4.6 mph - N/A Fog Fog
6:55 AM 66.4 °F - 65.3 °F 96% 30.02 in 1.0 mi East 4.6 mph - N/A   Overcast
7:15 AM 66.4 °F - 65.3 °F 96% 30.02 in 0.5 mi East 4.6 mph - N/A Fog Fog
7:35 AM 66.4 °F - 65.3 °F 96% 30.03 in 0.5 mi East 5.8 mph - N/A Fog Fog
7:55 AM 66.4 °F - 65.3 °F 96% 30.03 in 0.2 mi East 3.5 mph - N/A Fog Fog
8:15 AM 67.3 °F - 66.2 °F 96% 30.04 in 0.2 mi East 3.5 mph - N/A Rain Light Rain
8:35 AM 68.7 °F - 67.6 °F 96% 30.04 in 0.5 mi Calm Calm - N/A Fog Fog
8:55 AM 71.8 °F - 70.7 °F 96% 30.05 in 10.0 mi Calm Calm - N/A   Scattered Clouds
9:15 AM 73.6 °F - 71.6 °F 93% 30.06 in 10.0 mi ESE 4.6 mph - N/A Rain Rain
9:35 AM 77.0 °F - 71.6 °F 83% 30.06 in 10.0 mi South 5.8 mph - N/A   Clear
9:55 AM 79.5 °F - 70.9 °F 75% 30.06 in 10.0 mi South 9.2 mph - N/A   Clear
10:15 AM 81.0 °F 84.6 °F 70.5 °F 70% 30.07 in 10.0 mi South 10.4 mph - N/A   Scattered Clouds
10:35 AM 82.0 °F 85.9 °F 70.2 °F 67% 30.07 in 10.0 mi SSW 11.5 mph 18.4 mph N/A   Scattered Clouds
10:55 AM 81.9 °F 85.2 °F 69.1 °F 65% 30.07 in 10.0 mi South 11.5 mph 17.3 mph N/A   Scattered Clouds
11:15 AM 84.2 °F 87.9 °F 69.1 °F 60% 30.07 in 10.0 mi SSW 11.5 mph 17.3 mph N/A   Clear
11:35 AM 83.8 °F 86.5 °F 67.3 °F 57% 30.07 in 10.0 mi South 9.2 mph - N/A   Clear
11:55 AM 85.1 °F 87.9 °F 67.5 °F 55% 30.06 in 10.0 mi SSW 11.5 mph - N/A   Scattered Clouds
12:15 PM 86.9 °F 88.6 °F 65.3 °F 48% 30.05 in 10.0 mi South 8.1 mph 16.1 mph N/A   Mostly Cloudy
12:35 PM 86.2 °F 87.1 °F 63.1 °F 46% 30.04 in 10.0 mi South 8.1 mph 16.1 mph N/A   Scattered Clouds
12:55 PM 87.3 °F 87.7 °F 62.2 °F 43% 30.03 in 10.0 mi South 8.1 mph 18.4 mph N/A   Scattered Clouds
1:15 PM 86.2 °F 86.6 °F 61.9 °F 44% 30.03 in 10.0 mi SSE 11.5 mph - N/A   Scattered Clouds
1:35 PM 80.6 °F 80.3 °F 53.8 °F 39% 30.02 in 10.0 mi ESE 24.2 mph 36.8 mph N/A   Scattered Clouds
1:55 PM 83.7 °F - 51.6 °F 33% 30.01 in 7.0 mi ESE 15.0 mph - N/A   Scattered Clouds
2:15 PM 87.6 °F 86.1 °F 55.9 °F 34% 30.00 in 10.0 mi SE 12.7 mph 18.4 mph N/A   Clear
2:35 PM 87.8 °F 86.9 °F 58.5 °F 37% 29.99 in 10.0 mi ESE 12.7 mph - N/A   Clear
2:55 PM 87.3 °F 87.7 °F 62.2 °F 43% 29.98 in 10.0 mi ESE 11.5 mph - N/A   Clear
3:15 PM 87.3 °F 88.3 °F 63.3 °F 45% 29.98 in 10.0 mi East 10.4 mph - N/A   Clear
3:35 PM 87.3 °F 88.6 °F 64.0 °F 46% 29.97 in 10.0 mi East 11.5 mph - N/A   Clear
3:55 PM 86.0 °F 88.2 °F 65.8 °F 51% 29.97 in 10.0 mi East 11.5 mph - N/A   Clear
4:15 PM 86.7 °F 88.1 °F 64.4 °F 47% 29.97 in 10.0 mi ESE 10.4 mph - N/A   Clear
4:35 PM 86.5 °F 89.3 °F 66.7 °F 52% 29.97 in 10.0 mi SE 13.8 mph 18.4 mph N/A   Clear
4:55 PM 84.7 °F 87.9 °F 68.0 °F 57% 29.97 in 10.0 mi SE 20.7 mph 25.3 mph N/A   Clear
5:15 PM 82.4 °F 85.4 °F 68.2 °F 62% 29.97 in 10.0 mi SE 17.3 mph - N/A   Clear
5:35 PM 81.5 °F 84.2 °F 68.0 °F 63% 29.97 in 10.0 mi SE 17.3 mph - N/A   Clear
5:55 PM 81.0 °F 83.6 °F 67.6 °F 64% 29.97 in 10.0 mi ESE 12.7 mph - N/A   Clear
6:15 PM 80.6 °F 83.2 °F 68.0 °F 65% 29.98 in 10.0 mi SE 13.8 mph - N/A   Clear
6:35 PM 79.2 °F - 67.6 °F 68% 29.98 in 10.0 mi SE 15.0 mph - N/A   Clear
6:55 PM 77.9 °F - 68.0 °F 71% 29.98 in 10.0 mi SE 10.4 mph - N/A   Clear
7:15 PM 77.0 °F - 67.6 °F 73% 29.99 in 10.0 mi SE 9.2 mph - N/A   Clear
7:35 PM 76.1 °F - 67.3 °F 74% 29.99 in 10.0 mi SE 11.5 mph - N/A   Clear
7:55 PM 75.6 °F - 67.1 °F 75% 29.99 in 10.0 mi SE 10.4 mph - N/A   Clear
8:15 PM 74.7 °F - 67.1 °F 77% 30.00 in 10.0 mi ESE 10.4 mph - N/A   Clear
8:35 PM 74.3 °F - 67.1 °F 78% 30.00 in 10.0 mi ESE 11.5 mph - N/A   Clear
8:55 PM 73.8 °F - 67.3 °F 80% 30.00 in 10.0 mi ESE 10.4 mph - N/A   Clear
9:15 PM 73.4 °F - 67.1 °F 81% 30.01 in 10.0 mi SE 10.4 mph - N/A   Clear
9:35 PM 73.4 °F - 67.5 °F 82% 30.01 in 10.0 mi SE 9.2 mph - N/A   Clear
9:55 PM 72.7 °F - 67.3 °F 83% 30.01 in 10.0 mi SE 8.1 mph - N/A   Clear
10:15 PM 72.5 °F - 67.6 °F 85% 30.01 in 10.0 mi SE 8.1 mph - N/A   Clear
10:35 PM 72.0 °F - 67.6 °F 86% 30.01 in 10.0 mi ESE 6.9 mph - N/A   Clear
10:55 PM 71.6 °F - 67.6 °F 87% 30.01 in 10.0 mi SE 8.1 mph - N/A   Clear
11:15 PM 70.9 °F - 67.1 °F 88% 30.01 in 10.0 mi SE 5.8 mph - N/A   Clear
11:35 PM 70.2 °F - 66.6 °F 88% 30.01 in 10.0 mi SSE 5.8 mph - N/A   Clear
11:55 PM 69.6 °F - 66.4 °F 89% 30.01 in 10.0 mi South 4.6 mph - N/A   Clear